Flag for Kazakhstan Weather past 2 weeks in Aqtobe, Kazakhstan

16 °F


Feels Like: 7 °F
Forecast: 13 / 27 °F
Wind: 6 mph from South

Location: Aktjubinsk

Current Time: Nov 30, 2015 at 1:05:45 AM

Latest Report: Nov 30, 2015 at 12:30 AM

Visibility: 10 mi

Pressure: 30.27 "Hg

Humidity: 93%

Dew point: 14 °F

Location of AqtobeLocation

Historic Weather in Aqtobe — Graph


Aqtobe temperature yesterday

Maximum temperature yesterday: 34 °F (at 2:30 PM)
Minimum temperature yesterday: 16 °F (at 11:30 PM)
Average temperature yesterday: 24 °F

Past Weeks' High & Low Weather Summary

High36 °F (Nov 24, 3:00 PM)100% (Nov 15, 3:30 PM)30.42 "Hg (Nov 15, 3:30 PM)
Low-6 °F (Nov 20, 11:30 PM)70% (Nov 29, 2:30 PM)29.77 "Hg (Nov 27, 1:30 PM)
Average22 °F90%30.15 "Hg
* Reported Midnight between Nov 14 and Nov 15 — Midnight between Nov 29 and Nov 30, Aqtobe, Weather by CustomWeather, © 2015

Note: Actual official high and low records may vary slightly from our data, if they occured in-between our weather recording intervals... More about our weather records


Aqtobe weather history for previous 24 hours

Time TempWeatherWind HumidityBarometerVisibility
12:00 AM
Mon, Nov 30
16 °FClear.1 mph100%30.27 "Hg10 mi
11:30 PM
Sun, Nov 29
16 °FClear.6 mph93%30.27 "Hg10 mi
11:00 PM18 °FClear.3 mph93%30.27 "Hg10 mi
10:30 PM19 °FClear.1 mph100%30.27 "Hg10 mi
10:00 PM18 °FClear.No wind100%30.27 "Hg10 mi
9:30 PM19 °FClear.No wind93%30.27 "Hg10 mi
9:00 PM21 °FClear.1 mph93%30.27 "Hg10 mi
8:30 PM19 °FClear.3 mph93%30.27 "Hg10 mi
8:00 PM25 °FClear.1 mph86%30.27 "Hg10 mi
7:30 PM23 °FClear.3 mph93%30.27 "Hg10 mi
7:00 PM23 °FClear.1 mph86%30.24 "Hg10 mi
6:30 PM28 °FClear.No wind86%30.24 "Hg10 mi
6:00 PM28 °FClear.No wind86%30.24 "Hg10 mi
5:30 PM30 °FClear.1 mph80%30.24 "Hg10 mi
5:00 PM32 °FSunny.No wind75%30.24 "Hg10 mi
4:30 PM34 °FSunny.1 mph70%30.24 "Hg10 mi
4:00 PM34 °FSunny.3 mph70%30.24 "Hg10 mi
3:30 PM34 °FSunny.3 mph75%30.24 "Hg10 mi
3:00 PM34 °FSunny.6 mph70%30.24 "Hg10 mi
2:30 PM34 °FSunny.8 mph70%30.24 "Hg10 mi
2:00 PM32 °FSunny.8 mph75%30.24 "Hg10 mi
1:30 PM32 °FSunny.8 mph75%30.24 "Hg10 mi
1:00 PM30 °FSunny.6 mph80%30.24 "Hg10 mi
11:30 AM28 °FSunny.1 mph80%30.24 "Hg10 mi
11:00 AM28 °FSunny.No wind80%30.24 "Hg10 mi
10:00 AM23 °FSunny.6 mph93%30.21 "Hg10 mi
9:30 AM19 °FSunny.6 mph93%30.21 "Hg10 mi
9:00 AM18 °FSunny.6 mph93%30.21 "Hg10 mi
8:30 AM18 °FClear.6 mph93%30.21 "Hg10 mi
8:00 AM18 °FPassing clouds.8 mph93%30.21 "HgN/A
7:30 AM19 °FClear.6 mph93%30.18 "Hg10 mi
7:00 AM19 °FClear.6 mph100%30.18 "Hg10 mi
6:30 AM19 °FClear.8 mph93%30.18 "Hg10 mi
6:00 AM21 °FClear.6 mph93%30.18 "Hg10 mi
5:30 AM21 °FPassing clouds.6 mph93%30.15 "HgN/A
4:30 AM23 °FClear.6 mph93%30.15 "Hg10 mi
4:00 AM21 °FClear.3 mph93%30.18 "Hg10 mi
3:00 AM23 °FClear.8 mph86%30.15 "Hg10 mi
2:30 AM23 °FClear.8 mph86%30.15 "Hg10 mi
1:30 AM23 °FClear.6 mph93%30.15 "Hg10 mi
1:00 AM23 °FClear.8 mph93%30.15 "Hg10 mi
Weather by CustomWeather, © 2015

See weather overviewHow to use our weather pages